Weather History for Falfurrias, TX

Change the Weather History Date:

Friday, September 7, 2012

  Actual Average (KNQI) Record (KNQI)
Temperature  
Mean Temperature 84 °F -  
Max Temperature 100 °F 90 °F 100 °F (2012)
Min Temperature 69 °F 72 °F 60 °F (2011)
Cooling Degree Days 19    
Growing Degree Days 34 (Base 50)    
Moisture  
Dew Point 67 °F    
Average Humidity 63    
Maximum Humidity 94    
Minimum Humidity 19    
Precipitation  
Precipitation 0.00 in - - ()
Sea Level Pressure  
Sea Level Pressure 29.85 in    
Wind  
Wind Speed 6 mph (SE)    
Max Wind Speed 17 mph    
Max Gust Speed 23 mph    
Visibility 8 miles    
Events      
Averages and records for this station are not official NWS values.
T = Trace of Precipitation, MM = Missing Value Source: NWS Daily Summary

Daily Weather History Graph

Daily Weather History Graph

Search for Another Location

Airport:

Trip Planner

Search our weather history database for the weather conditions in past years. The results will help you decide how hot, cold, wet, or windy it might be!

Date:

Astronomy

Sep. 07, 2012 Rise Set
Actual Time 7:14 AM CDT 7:45 PM CDT
Civil Twilight 6:51 AM CDT 8:08 PM CDT
Nautical Twilight 6:23 AM CDT 8:36 PM CDT
Astronomical Twilight 5:55 AM CDT 9:04 PM CDT
Moon No Moon Rise 1:29 PM CDT (9/7)
Length of Visible Light 13h 17m
Length of Day
12h 30m
Waning Gibbous, 58% of the Moon is Illuminated
Sep 7
Waning Gibbous
Sep 8
Last Quarter
Sep 15
New
Sep 22
First Quarter
Sep 29
Full

Hourly Weather History & Observations

Time (CDT) Temp. Heat Index Dew Point Humidity Pressure Visibility Wind Dir Wind Speed Gust Speed Precip Events Conditions
12:15 AM 79.0 °F - 71.6 °F 78% 29.89 in 10.0 mi SSE 6.9 mph - N/A   Clear
12:35 AM 78.8 °F - 71.2 °F 78% 29.89 in 10.0 mi SSE 5.8 mph - N/A   Clear
1:15 AM 77.2 °F - 70.9 °F 81% 29.89 in 7.0 mi South 4.6 mph - N/A   Clear
1:35 AM 77.0 °F - 70.9 °F 81% 29.88 in 10.0 mi SSE 3.5 mph - N/A   Clear
1:55 AM 76.1 °F - 70.7 °F 83% 29.88 in 10.0 mi SSE 3.5 mph - N/A   Clear
2:15 AM 75.7 °F - 70.7 °F 84% 29.88 in 10.0 mi Calm Calm - N/A   Clear
2:35 AM 74.5 °F - 70.0 °F 86% 29.88 in 10.0 mi Calm Calm - N/A   Clear
2:55 AM 74.3 °F - 70.0 °F 86% 29.87 in 10.0 mi SE 3.5 mph - N/A   Clear
3:15 AM 73.2 °F - 69.3 °F 87% 29.87 in 10.0 mi SE 3.5 mph - N/A   Clear
3:35 AM 72.5 °F - 68.9 °F 88% 29.88 in 7.0 mi Calm Calm - N/A   Clear
3:55 AM 71.6 °F - 68.5 °F 90% 29.87 in 5.0 mi East 4.6 mph - N/A   Clear
4:15 AM 71.6 °F - 68.9 °F 91% 29.87 in 5.0 mi ESE 3.5 mph - N/A   Clear
4:35 AM 71.6 °F - 68.9 °F 91% 29.87 in 5.0 mi Calm Calm - N/A   Clear
4:55 AM 70.7 °F - 68.0 °F 91% 29.87 in 3.0 mi East 3.5 mph - N/A   Clear
5:15 AM 70.7 °F - 68.4 °F 92% 29.87 in 4.0 mi Calm Calm - N/A   Clear
5:35 AM 69.8 °F - 67.5 °F 92% 29.87 in 2.5 mi Calm Calm - N/A   Clear
5:55 AM 69.8 °F - 67.5 °F 92% 29.88 in 2.5 mi Calm Calm - N/A   Clear
6:15 AM 69.6 °F - 67.5 °F 93% 29.88 in 2.0 mi Calm Calm - N/A   Mostly Cloudy
6:35 AM 69.8 °F - 67.8 °F 93% 29.88 in 2.5 mi SE 4.6 mph - N/A   Scattered Clouds
6:55 AM 69.8 °F - 67.5 °F 92% 29.88 in 2.5 mi East 4.6 mph - N/A   Clear
7:15 AM 70.0 °F - 68.0 °F 93% 29.88 in 2.0 mi ESE 3.5 mph - N/A   Clear
7:35 AM 70.0 °F - 68.0 °F 93% 29.89 in 1.8 mi ESE 4.6 mph - N/A   Unknown
7:55 AM 70.7 °F - 68.9 °F 94% 29.89 in 2.0 mi East 5.8 mph - N/A   Clear
8:15 AM 71.6 °F - 69.3 °F 92% 29.90 in 3.0 mi East 4.6 mph - N/A   Clear
8:35 AM 73.0 °F - 70.9 °F 93% 29.91 in 5.0 mi ESE 3.5 mph - N/A   Clear
8:55 AM 74.5 °F - 71.4 °F 90% 29.91 in 10.0 mi SE 4.6 mph - N/A   Clear
9:15 AM 78.4 °F - 71.4 °F 79% 29.91 in 10.0 mi South 10.4 mph - N/A   Clear
9:35 AM 81.3 °F 85.6 °F 71.4 °F 72% 29.92 in 10.0 mi SSE 10.4 mph - N/A   Clear
9:55 AM 82.8 °F 87.2 °F 70.7 °F 67% 29.92 in 10.0 mi South 12.7 mph - N/A   Clear
10:15 AM 84.2 °F 88.7 °F 70.2 °F 63% 29.91 in 10.0 mi SSE 12.7 mph - N/A   Clear
10:35 AM 86.0 °F 90.4 °F 69.4 °F 58% 29.91 in 10.0 mi South 15.0 mph - N/A   Clear
10:55 AM 87.6 °F 91.5 °F 68.5 °F 53% 29.90 in 10.0 mi SE 13.8 mph 17.3 mph N/A   Clear
11:15 AM 88.9 °F 92.2 °F 67.5 °F 49% 29.90 in 7.0 mi SE 11.5 mph 18.4 mph N/A   Clear
11:35 AM 88.9 °F 91.8 °F 66.9 °F 48% 29.90 in 10.0 mi South 11.5 mph - N/A   Clear
11:55 AM 90.5 °F 92.5 °F 64.9 °F 43% 29.89 in 10.0 mi SSE 11.5 mph - N/A   Clear
12:15 PM 91.2 °F 93.3 °F 64.9 °F 42% 29.88 in 10.0 mi SSE 12.7 mph 17.3 mph N/A   Clear
12:35 PM 92.7 °F 93.2 °F 61.9 °F 36% 29.88 in 10.0 mi SE 9.2 mph - N/A   Clear
12:55 PM 93.9 °F 94.4 °F 61.9 °F 34% 29.87 in 10.0 mi South 9.2 mph - N/A   Clear
1:15 PM 94.8 °F 95.3 °F 61.3 °F 33% 29.85 in 10.0 mi SE 13.8 mph 17.3 mph N/A   Clear
1:35 PM 95.9 °F 96.1 °F 61.0 °F 31% 29.85 in 10.0 mi SE 8.1 mph 17.3 mph N/A   Clear
1:55 PM 95.7 °F 95.5 °F 59.7 °F 30% 29.84 in 10.0 mi ESE 4.6 mph - N/A   Clear
2:15 PM 97.0 °F 96.9 °F 59.5 °F 29% 29.83 in 10.0 mi South 6.9 mph - N/A   Clear
2:35 PM 98.1 °F 98.1 °F 59.7 °F 28% 29.82 in 10.0 mi ESE 9.2 mph - N/A   Clear
2:55 PM 99.0 °F 98.6 °F 58.5 °F 26% 29.81 in 10.0 mi SE 10.4 mph - N/A   Clear
3:15 PM 98.8 °F 98.3 °F 58.6 °F 26% 29.80 in 10.0 mi ESE 6.9 mph - N/A   Scattered Clouds
3:35 PM 98.1 °F 96.4 °F 55.4 °F 24% 29.79 in 10.0 mi Calm Calm - N/A   Scattered Clouds
3:55 PM 99.5 °F 97.6 °F 54.5 °F 22% 29.78 in 10.0 mi SSE 10.4 mph - N/A   Clear
4:15 PM 99.5 °F 97.6 °F 53.8 °F 22% 29.78 in 10.0 mi SE 6.9 mph - N/A   Clear
4:55 PM 99.9 °F - 51.1 °F 19% 29.77 in 10.0 mi SSW 3.5 mph - N/A   Clear
5:15 PM 99.9 °F - 52.0 °F 20% 29.76 in 10.0 mi SE 8.1 mph - N/A   Clear
5:35 PM 98.4 °F 100.2 °F 63.3 °F 31% 29.76 in 10.0 mi SE 12.7 mph 19.6 mph N/A   Scattered Clouds
5:55 PM 96.8 °F 100.7 °F 66.9 °F 37% 29.76 in 10.0 mi SE 13.8 mph 20.7 mph N/A   Scattered Clouds
6:15 PM 95.0 °F 100.1 °F 68.7 °F 42% 29.76 in 10.0 mi ESE 15.0 mph 19.6 mph N/A   Clear
6:35 PM 93.6 °F 98.4 °F 68.9 °F 44% 29.77 in 10.0 mi East 17.3 mph 23.0 mph N/A   Clear
6:55 PM 92.3 °F 98.1 °F 69.8 °F 48% 29.77 in 10.0 mi ESE 15.0 mph 20.7 mph N/A   Clear
7:15 PM 90.7 °F 96.4 °F 70.5 °F 51% 29.77 in 10.0 mi ESE 12.7 mph 18.4 mph N/A   Clear
7:35 PM 88.9 °F 95.1 °F 71.4 °F 56% 29.78 in 10.0 mi ESE 15.0 mph 18.4 mph N/A   Clear
7:55 PM 87.8 °F 93.8 °F 71.6 °F 58% 29.78 in 10.0 mi ESE 11.5 mph - N/A   Clear
8:15 PM 86.9 °F 92.9 °F 71.6 °F 60% 29.79 in 10.0 mi ESE 10.4 mph 17.3 mph N/A   Clear
8:35 PM 86.0 °F 91.5 °F 71.1 °F 61% 29.79 in 10.0 mi ESE 9.2 mph - N/A   Scattered Clouds
8:55 PM 85.5 °F 90.8 °F 71.1 °F 62% 29.80 in 10.0 mi ESE 8.1 mph - N/A   Scattered Clouds
9:15 PM 84.6 °F 89.7 °F 71.2 °F 64% 29.80 in 10.0 mi ESE 9.2 mph - N/A   Clear
9:35 PM 84.2 °F 89.6 °F 71.6 °F 66% 29.81 in 10.0 mi SE 13.8 mph - N/A   Clear
9:55 PM 84.0 °F 89.3 °F 71.6 °F 66% 29.82 in 10.0 mi SE 11.5 mph 16.1 mph N/A   Clear
10:55 PM 82.0 °F 86.7 °F 71.6 °F 71% 29.83 in 10.0 mi SE 8.1 mph - N/A   Scattered Clouds
11:35 PM 81.5 °F 85.9 °F 71.8 °F 72% 29.84 in 10.0 mi SSE 8.1 mph - N/A   Clear
11:55 PM 81.0 °F 85.2 °F 71.8 °F 74% 29.84 in 10.0 mi SSE 5.8 mph - N/A   Clear